Parkersburg, WV

10:49 AM EST on December 06, 2019 (GMT -0500)
Wood County Wilson

Weather History for KPKB - August, 2019

Change the Weather History Date:

Tuesday, August 27, 2019

  Actual Average Record
Temperature  
Mean Temperature 72 °F 72 °F  
Max Temperature 79 °F 83 °F 100 °F (1948)
Min Temperature 64 °F 61 °F 47 °F (1945)
Degree Days  
Heating Degree Days 0 0  
Month to date heating degree days 0 0  
Since 1 June heating degree days 16 20  
Since 1 July heating degree days 0 1  
Cooling Degree Days 6 7  
Month to date cooling degree days 230 233  
Year to date cooling degree days 927 800  
Since 1 June cooling degree days 782 716  
Growing Degree Days 22 (Base 50)    
Moisture  
Dew Point 65 °F    
Average Humidity 88    
Maximum Humidity 94    
Minimum Humidity 74    
Precipitation  
Precipitation 0.11 in 0.11 in 1.42 in (2008)
Month to date precipitation 3.59 3.16  
Year to date precipitation 33.03 28.34  
Sea Level Pressure  
Sea Level Pressure 29.96 in    
Wind  
Wind Speed 6 mph ()    
Max Wind Speed 13 mph    
Max Gust Speed 17 mph    
Visibility 7.3 miles    
Events Rain    
T = Trace of Precipitation, MM = Missing Value Source: Averaged Metar Reports

Daily Weather History Graph

Daily Weather History Graph

Search for Another Location

Airport or City:

Astronomy

Aug. 27, 2019 Rise Set
Actual Time 6:49 AM EDT 8:04 PM EDT
Civil Twilight 6:21 AM EDT 8:32 PM EDT
Nautical Twilight 5:48 AM EDT 9:05 PM EDT
Astronomical Twilight 5:13 AM EDT 9:40 PM EDT
Moon 3:13 AM EDT (8/27) 6:22 PM EDT (8/27)
Length of Visible Light 14h 10m
Length of Day
13h 15m
Waning Crescent, 11% of the Moon is Illuminated
Aug 27
Waning Crescent
Aug 30
New
Sep 5
First Quarter
Sep 14
Full
Sep 21
Last Quarter

Hourly Weather History & Observations

Time (EDT) Temp. Dew Point Humidity Pressure Visibility Wind Dir Wind Speed Gust Speed Precip Events Conditions
12:53 AM 64.9 °F 62.1 °F 90% 30.00 in 10.0 mi South 4.6 mph - 0.00 in   Overcast
1:53 AM 64.9 °F 62.1 °F 90% 29.99 in 5.0 mi South 6.9 mph - 0.00 in   Overcast
2:09 AM 64.0 °F 62.1 °F 93% 30.01 in 5.0 mi South 8.1 mph - 0.00 in Rain Light Rain
2:15 AM 64.0 °F 62.1 °F 93% 30.00 in 2.5 mi South 5.8 mph - 0.01 in Rain Light Rain
2:33 AM 64.0 °F 62.1 °F 93% 30.00 in 4.0 mi South 6.9 mph - 0.03 in Rain Light Rain
2:42 AM 64.0 °F 62.1 °F 93% 30.00 in 2.5 mi South 8.1 mph - 0.04 in Rain Light Rain
2:53 AM 64.0 °F 62.1 °F 93% 29.98 in 5.0 mi South 6.9 mph - 0.05 in Rain Light Rain
3:03 AM 64.0 °F 62.1 °F 93% 30.00 in 3.0 mi South 8.1 mph - 0.01 in Rain Light Rain
3:21 AM 64.0 °F 62.1 °F 93% 29.99 in 3.0 mi SSE 6.9 mph - 0.03 in Rain Light Rain
3:53 AM 64.0 °F 62.1 °F 93% 29.96 in 9.0 mi South 5.8 mph - 0.03 in Rain Light Rain
4:53 AM 64.0 °F 62.1 °F 93% 29.97 in 3.0 mi South 6.9 mph - 0.01 in Rain Light Rain
5:10 AM 64.0 °F 62.1 °F 93% 29.99 in 2.5 mi South 5.8 mph - 0.01 in Rain Light Rain
5:18 AM 64.0 °F 62.1 °F 93% 29.99 in 4.0 mi South 8.1 mph - 0.01 in Rain Light Rain
5:53 AM 64.0 °F 62.1 °F 93% 29.97 in 6.0 mi South 6.9 mph - 0.02 in Rain Light Rain
6:53 AM 64.0 °F 62.1 °F 93% 29.97 in 9.0 mi South 8.1 mph - 0.00 in   Overcast
7:48 AM 64.4 °F 62.6 °F 94% 29.99 in 6.0 mi South 9.2 mph - 0.00 in   Overcast
7:53 AM 64.9 °F 63.0 °F 93% 29.97 in 7.0 mi South 8.1 mph - 0.00 in   Overcast
8:53 AM 66.0 °F 63.0 °F 90% 29.98 in 3.0 mi South 5.8 mph - 0.00 in Rain Light Rain
9:53 AM 66.9 °F 64.9 °F 93% 29.97 in 3.0 mi South 9.2 mph - 0.00 in   Overcast
10:53 AM 69.1 °F 64.9 °F 87% 29.98 in 10.0 mi South 8.1 mph - N/A   Overcast
11:49 AM 69.8 °F 66.2 °F 88% 29.99 in 10.0 mi South 9.2 mph - N/A   Overcast
11:53 AM 70.0 °F 66.0 °F 87% 29.98 in 8.0 mi South 8.1 mph - N/A   Overcast
12:27 PM 71.1 °F 66.9 °F 87% 29.98 in 10.0 mi SSE 9.2 mph - N/A   Overcast
12:53 PM 72.0 °F 66.9 °F 84% 29.96 in 10.0 mi South 9.2 mph - N/A   Overcast
1:53 PM 73.0 °F 68.0 °F 84% 29.95 in 10.0 mi South 5.8 mph - N/A   Overcast
2:53 PM 75.0 °F 68.0 °F 79% 29.94 in 10.0 mi South 8.1 mph - N/A   Overcast
3:01 PM 75.0 °F 68.0 °F 79% 29.96 in 10.0 mi SSW 5.8 mph - N/A   Overcast
3:53 PM 75.0 °F 68.0 °F 79% 29.93 in 10.0 mi South 5.8 mph - N/A   Overcast
4:53 PM 77.0 °F 68.0 °F 74% 29.91 in 10.0 mi South 5.8 mph - N/A   Mostly Cloudy
5:37 PM 77.0 °F 69.1 °F 76% 29.92 in 10.0 mi South 5.8 mph - N/A   Mostly Cloudy
5:53 PM 78.1 °F 70.0 °F 76% 29.91 in 10.0 mi SSW 6.9 mph - N/A   Scattered Clouds
6:53 PM 77.0 °F 69.1 °F 76% 29.91 in 10.0 mi South 5.8 mph - N/A   Mostly Cloudy
7:53 PM 75.9 °F 68.0 °F 76% 29.92 in 10.0 mi Calm Calm - N/A   Overcast
8:53 PM 73.0 °F 69.1 °F 87% 29.92 in 10.0 mi Calm Calm - N/A   Scattered Clouds
9:53 PM 72.0 °F 69.1 °F 91% 29.93 in 10.0 mi SE 3.5 mph - N/A   Overcast
10:53 PM 73.0 °F 69.1 °F 87% 29.93 in 10.0 mi SSE 3.5 mph - N/A   Overcast
11:53 PM 73.0 °F 69.1 °F 87% 29.92 in 10.0 mi SSE 4.6 mph - N/A   Scattered Clouds